Location: Poughquag
(41.6090°N, 73.6820°W)
Time: 09:06:34
(UTC-04:00)

nSIGHT-1 - Visible Passes

Search period start: 02 April 2020 00:00
Search period end: 12 April 2020 00:00
Orbit: 267 x 276 km, 51.6° (Epoch: 01 April)

Date Brightness Start Highest point End Pass type
(mag) Time Alt. Az. Time Alt. Az. Time Alt. Az.
06 Apr ? 05:07:39 10° SSE 05:08:45 13° SE 05:09:57 10° ESE visible
07 Apr ? 05:04:54 20° SSE 05:05:30 23° SE 05:07:27 10° E visible
08 Apr ? 05:01:39 41° SSE 05:01:52 43° SE 05:04:07 10° ENE visible
09 Apr ? 04:57:53 86° E 04:57:53 86° E 05:00:10 10° NE visible
10 Apr ? 04:53:37 46° N 04:53:37 46° N 04:55:41 10° NE visible
11 Apr ? 04:48:53 28° NNW 04:48:53 28° NNW 04:50:41 10° NE visible
